Weather Roundup
Issued by NWS Chicago, IL

Home | Current Version | Previous Version | Text Only | Print | Product List | Glossary On
Versions: 1 2 3 4 5 6 7 8 9 10 11 12 13 14 15 16 17 18 19 20 21 22 23 24 25 26 27 28 29 30 31 32 33 34 35 36 37 38 39 40 41 42 43 44 45 46 47 48 49 50
000
NZUS59 KLOT 282021
HRRLOT

CHICAGO AREA WEATHER ROUNDUP
NATIONAL WEATHER SERVICE CHICAGO/ROMEOVILLE IL
300 PM CDT THU MAY 28 2015

NOTE: "FAIR" INDICATES FEW OR NO CLOUDS BELOW 12,000 FEET WITH NO
SIGNIFICANT WEATHER AND/OR OBSTRUCTIONS TO VISIBILITY.

* THESE STATIONS ARE NOT UNDER NWS QUALITY CONTROL. THEY ALSO MAY NOT
  REPORT WEATHER SUCH AS PRECIPITATION OR FOG.

ILZ005-006-012>014-019>023-282100-
NORTHEAST ILLINOIS

CITY           SKY/WX    TMP DP  RH WIND       PRES   REMARKS
OHARE          MOSUNNY   82  54  37 E12       30.14F HX  81
MIDWAY         PTSUNNY   83  57  41 E12       30.14F HX  82
AURORA         PTSUNNY   83  55  38 S14G21    30.15F HX  82
LANSING*       SUNNY     82  47  29 SE9       30.15F HX  80
JOLIET*        SUNNY     84  56  38 S10       30.14F HX  83
WAUKEGAN       MOSUNNY   74  58  57 SE12      30.17F
DUPAGE AIRPORT MOSUNNY   82  55  39 SE9       30.15F HX  81
WHEELING       SUNNY     80  54  40 E7        30.17F HX  80
KANKAKEE*      SUNNY     83  52  34 SE12G17   30.14F HX  82
MORRIS*        SUNNY     83  52  33 SE9       30.13F HX  81
LEWIS AIRPORT* SUNNY     82  53  36 SE9       30.14F HX  81
NORTHERLY IS     N/A     70  55  59 NE3         N/A
$$

WIZ051-052-058>065-066-070>072-282100-
SOUTHEAST WISCONSIN

CITY           SKY/WX    TMP DP  RH WIND       PRES   REMARKS
MILWAUKEE      PTSUNNY   76  57  51 SE16      30.16F
KENOSHA*       MOSUNNY   77  57  50 SE16      30.18S
RACINE*        MOSUNNY   73  54  51 S15       30.19F
BURLINGTON     MOSUNNY   80  56  43 SE13      30.16S HX  80
WAUKESHA       MOSUNNY   79  54  41 SE12      30.16F
WEST BEND      MOSUNNY   79  57  47 SE10G16   30.14F HX  80
$$

INZ001>003-010>013-019-020-282100-
NORTHWEST INDIANA

CITY           SKY/WX    TMP DP  RH WIND       PRES   REMARKS
GARY*          MOSUNNY   81  57  44 NE9       30.16F HX  81
MICHIGAN CITY* NOT AVBL
RENSSELAER*    NOT AVBL
VALPARAISO     SUNNY     82  53  36 E12       30.17F HX  81
$$

LMZ740>746-282100-
SOUTHERN LAKE MICHIGAN

STATION/POSITION TIME  SKY/WX   TEMP WIND        PRES    VSBY
                                AIR  DIR/SP/G
                 (UTC)          (F)  (DEG/KT/KT) (MB)    (MI)
HARRISON CRIB    2000            62   60/  7/  9   N/A
BURNHAM HARBOR   2000            69   10/  3/  5   N/A
CALUMET HARBOR   1948            71   30/  6/  9   N/A
BURNS HARBOR     2000            70   30/  9/ 19 1021.7F
MICHIGAN CITY    2000            79  120/ 11/ 16   N/A
$$

ABBREVIATIONS USED IN REMARKS
   TC - TEMPERATURE IN CELSIUS
  WCI - WIND CHILL INDEX
   HX - HEAT INDEX
  VSB - VISIBILITY
$$


USA.gov is the U.S. government's official web portal to all federal, state and local government web resources and services.